User: anonymous   Login
Location: Chiroubles
(46.1812°N, 4.6660°E)
Time: 07:05:03
(UTC+00:00)
Language:

deb Kosmos-1763 - Orbit

View from above orbital plane
View from above orbital plane
View from above satellite
View from above satellite

Ground track
Ground track

The orbit data is extracted from the following two-line orbital elements,

1 16865U 86052C   20299.86375027 +.00014474 +00000-0 +46503-3 0  9998
2 16865 073.9986 094.3413 0008370 119.8764 240.3272 15.32249984842032
Epoch (UTC): 25 October 2020 20:43:48
Eccentricity: 0.0008370
inclination: 73.9986°
perigee height: 463 km
apogee height: 475 km
right ascension of ascending node: 94.3413°
argument of perigee: 119.8764°
revolutions per day: 15.32249984
mean anomaly at epoch: 240.3272°
orbit number at epoch: 84203

The dashed part of the orbit path shows where the satellite is in the earth's shadow,  

DLR